GW7197 Weather Reports


time (UTC)temp
C
wind
direction
speed
KPH
gust
KPH
rain 1hr
cm
rain 24hr
cm
rain mn
cm
humidity
%
barometer
mb
20260504214927 28 333 12.9 16.1 0.00 0.00 0.00 62 1018.8
20260504214423 28 333 8.0 14.5 0.00 0.00 0.00 62 1019.0
20260504213920 28 325 9.7 20.9 0.00 0.00 0.00 62 1019.0
20260504213416 28 325 4.8 27.4 0.00 0.00 0.00 63 1019.1
20260504212914 28 324 4.8 17.7 0.00 0.00 0.00 66 1019.2
20260504212409 28 325 4.8 14.5 0.00 0.00 0.00 64 1019.0
20260504211908 28 324 6.4 9.7 0.00 0.00 0.00 64 1019.1
20260504211403 28 324 9.7 16.1 0.00 0.00 0.00 66 1019.2
20260504210901 28 324 6.4 12.9 0.00 0.00 0.00 64 1019.4
20260504210357 28 324 17.7 20.9 0.00 0.00 0.00 63 1019.2
20260504205855 27 324 9.7 14.5 0.00 0.00 0.00 66 1019.4
20260504205352 28 324 19.3 24.1 0.00 0.00 0.00 64 1019.5
20260504204850 28 322 3.2 11.3 0.00 0.00 0.00 65 1019.6
20260504204348 28 322 4.8 16.1 0.00 0.00 0.00 64 1019.4
20260504203848 28 322 6.4 14.5 0.00 0.00 0.00 63 1019.4
20260504203344 28 322 9.7 16.1 0.00 0.00 0.00 64 1019.4
20260504202840 27 322 4.8 9.7 0.00 0.00 0.00 65 1019.7
20260504202337 27 321 9.7 20.9 0.00 0.00 0.00 66 1019.7
20260504201834 27 321 3.2 17.7 0.00 0.00 0.00 67 1019.7
20260504201331 27 321 3.2 6.4 0.00 0.00 0.00 65 1019.7
20260504200829 27 321 8.0 12.9 0.00 0.00 0.00 65 1019.7
20260504200325 26 319 6.4 11.3 0.00 0.00 0.00 68 1019.7
20260504195821 26 319 8.0 9.7 0.00 0.00 0.00 68 1019.7
20260504195317 27 319 9.7 14.5 0.00 0.00 0.00 67 1019.9
20260504194814 26 318 3.2 6.4 0.00 0.00 0.00 69 1019.8
20260504194310 27 319 17.7 20.9 0.00 0.00 0.00 68 1019.8
20260504193806 27 316 4.8 9.7 0.00 0.00 0.00 65 1020.2
20260504193304 27 316 6.4 9.7 0.00 0.00 0.00 66 1020.0
20260504192802 27 314 0.0 0.0 0.00 0.00 0.00 65 1020.1
20260504192300 27 313 0.0 0.0 0.00 0.00 0.00 63 1020.0
20260504191758 27 307 0.0 0.0 0.00 0.00 0.00 67 1020.1
20260504191255 26 311 6.4 11.3 0.00 0.00 0.00 68 1020.1
20260504190751 26 301 0.0 3.2 0.00 0.00 0.00 71 1020.2
20260504190247 26 290 4.8 4.8 0.00 0.00 0.00 72 1020.0
20260504185743 25 283 6.4 6.4 0.00 0.00 0.00 72 1020.1
20260504185241 25 278 1.6 3.2 0.00 0.00 0.00 72 1020.1
20260504184737 26 302 1.6 6.4 0.00 0.00 0.00 72 1020.1
20260504184233 26 243 3.2 4.8 0.00 0.00 0.00 73 1020.0
20260504183729 25 227 1.6 1.6 0.00 0.00 0.00 75 1020.3
20260504183226 25 227 1.6 3.2 0.00 0.00 0.00 76 1020.1
20260504182724 24 230 3.2 4.8 0.00 0.00 0.00 75 1020.1
20260504182221 24 238 3.2 4.8 0.00 0.00 0.00 75 1020.1
20260504181718 24 235 3.2 3.2 0.00 0.00 0.00 76 1020.1
20260504181216 24 234 3.2 4.8 0.00 0.00 0.00 75 1020.0
20260504180715 25 249 3.2 3.2 0.00 0.00 0.00 75 1020.0
20260504180213 25 238 1.6 3.2 0.00 0.00 0.00 77 1020.0
20260504175710 25 226 0.0 1.6 0.00 0.00 0.00 78 1020.0
20260504175207 24 236 0.0 1.6 0.00 0.00 0.00 79 1020.0
20260504174705 24 234 0.0 0.0 0.00 0.00 0.00 79 1019.8
20260504174202 23 235 0.0 1.6 0.00 0.00 0.00 81 1019.8
20260504173658 23 219 0.0 1.6 0.00 0.00 0.00 83 1019.9
20260504173156 22 215 0.0 1.6 0.00 0.00 0.00 83 1019.9
20260504172652 22 201 1.6 3.2 0.00 0.00 0.00 84 1020.0
20260504172149 22 226 0.0 1.6 0.00 0.00 0.00 87 1019.9
20260504171645 21 221 0.0 1.6 0.00 0.00 0.00 87 1019.9
20260504171143 21 219 0.0 1.6 0.00 0.00 0.00 88 1019.9
20260504170639 20 218 0.0 1.6 0.00 0.00 0.00 89 1019.9
20260504170136 20 226 0.0 3.2 0.00 0.00 0.00 89 1019.8
20260504151027 18 217 0.0 1.6 0.00 0.00 0.00 90 1018.9
20260504150525 18 209 1.6 3.2 0.00 0.00 0.00 90 1018.7
20260504140956 19 225 0.0 1.6 0.00 0.00 0.00 90 1018.4
20260504140453 18 194 3.2 3.2 0.00 0.00 0.00 90 1018.3
20260504130418 19 215 0.0 3.2 0.00 0.00 0.00 89 1018.2
20260504110304 20 198 1.6 3.2 0.00 0.00 0.00 85 1019.6
20260504100222 21 210 1.6 3.2 0.00 0.00 0.00 83 1020.0
20260504081615 22 205 1.6 3.2 0.00 0.00 0.00 81 1020.4
20260504081111 22 224 0.0 0.0 0.00 0.00 0.00 81 1020.6
20260504080609 22 221 0.0 1.6 0.00 0.00 0.00 80 1020.3
20260504080105 22 230 0.0 0.0 0.00 0.00 0.00 80 1020.6
20260504050421 23 339 6.4 9.7 0.00 0.00 0.00 78 1018.7
20260504045918 23 7 4.8 6.4 0.00 0.00 0.00 78 1018.6
20260504045414 23 22 6.4 9.7 0.00 0.00 0.00 77 1018.7
20260504044910 23 258 3.2 4.8 0.00 0.00 0.00 77 1018.5
20260504044408 23 246 3.2 16.1 0.00 0.00 0.00 76 1018.4
20260504043905 24 131 6.4 17.7 0.00 0.00 0.00 76 1018.4
20260504043402 24 51 3.2 6.4 0.00 0.00 0.00 74 1018.5
20260504042859 24 327 6.4 14.5 0.00 0.00 0.00 74 1018.5
20260504042355 24 257 3.2 4.8 0.00 0.00 0.00 74 1018.3
20260504041852 24 227 3.2 3.2 0.00 0.00 0.00 74 1018.2
20260504041348 25 159 1.6 4.8 0.00 0.00 0.00 73 1018.5
20260504040844 25 25 3.2 4.8 0.00 0.00 0.00 73 1018.1
20260504040342 25 38 3.2 4.8 0.00 0.00 0.00 74 1018.2
20260504035837 25 291 3.2 4.8 0.00 0.00 0.00 72 1018.1
20260504035336 25 248 3.2 9.7 0.00 0.00 0.00 74 1017.9
20260504034832 25 99 6.4 16.1 0.00 0.00 0.00 73 1017.9
20260504034330 25 211 6.4 17.7 0.00 0.00 0.00 73 1018.1
20260504033827 25 332 9.7 14.5 0.00 0.00 0.00 73 1017.8
20260504033325 25 354 9.7 12.9 0.00 0.00 0.00 71 1017.9
20260504032821 25 273 3.2 6.4 0.00 0.00 0.00 71 1017.8
20260504032319 26 310 1.6 11.3 0.00 0.00 0.00 69 1017.7
20260504031815 26 343 6.4 12.9 0.00 0.00 0.00 69 1017.7
20260504031313 26 266 4.8 12.9 0.00 0.00 0.00 67 1017.7
20260504030809 26 86 6.4 11.3 0.00 0.00 0.00 69 1017.5
20260504030306 26 184 4.8 17.7 0.00 0.00 0.00 69 1017.4
20260504025802 26 309 8.0 11.3 0.00 0.00 0.00 72 1017.5
20260504025259 26 340 9.7 22.5 0.00 0.00 0.00 71 1017.2
20260504024755 25 34 8.0 22.5 0.00 0.00 0.00 71 1017.3
20260504024252 25 88 12.9 20.9 0.00 0.00 0.00 70 1017.2
20260504023749 26 45 8.0 14.5 0.00 0.00 0.00 70 1017.2
20260504023245 25 54 9.7 17.7 0.00 0.00 0.00 70 1017.0
20260504022741 25 45 11.3 20.9 0.00 0.00 0.00 69 1017.3
20260504022238 25 60 14.5 17.7 0.00 0.00 0.00 68 1017.4
20260504021735 25 41 16.1 22.5 0.00 0.00 0.00 69 1017.2
20260504021232 26 13 11.3 20.9 0.00 0.00 0.00 70 1017.3
20260504020729 26 223 8.0 11.3 0.00 0.00 0.00 68 1017.3
20260504020226 26 36 6.4 14.5 0.00 0.00 0.00 68 1017.1
20260504015722 26 225 9.7 20.9 0.00 0.00 0.00 68 1017.4
20260504015218 26 344 4.8 17.7 0.00 0.00 0.00 67 1017.4
20260504014714 26 139 12.9 27.4 0.00 0.00 0.00 69 1017.3
20260504014211 26 358 9.7 22.5 0.00 0.00 0.00 68 1017.4
20260504013709 26 287 9.7 22.5 0.00 0.00 0.00 70 1017.5
20260504013206 26 106 6.4 24.1 0.00 0.00 0.00 69 1017.5
20260504012703 26 20 19.3 24.1 0.00 0.00 0.00 70 1017.3
20260504012201 26 3 20.9 25.7 0.00 0.00 0.00 72 1017.4
20260504011657 25 16 9.7 33.8 0.00 0.00 0.00 75 1017.5
20260504011154 25 352 14.5 25.7 0.00 0.00 0.00 75 1017.3
20260504010649 25 348 14.5 27.4 0.00 0.00 0.00 76 1017.4
20260504010145 25 18 6.4 14.5 0.00 0.00 0.00 76 1017.6
20260504005643 25 352 22.5 25.7 0.00 0.00 0.00 75 1017.5
20260504005139 25 352 16.1 22.5 0.00 0.00 0.00 74 1017.5
20260504004637 26 3 24.1 35.4 0.00 0.00 0.00 71 1017.3
20260504004134 26 335 9.7 16.1 0.00 0.00 0.00 68 1017.4
20260504003630 27 308 6.4 14.5 0.00 0.00 0.00 66 1017.4
20260504003127 27 79 8.0 17.7 0.00 0.00 0.00 65 1017.4
20260504002624 27 2 6.4 16.1 0.00 0.00 0.00 65 1017.6
20260504002122 27 23 9.7 17.7 0.00 0.00 0.00 65 1017.6
20260504001619 26 352 9.7 17.7 0.00 0.00 0.00 66 1017.5
20260504001115 26 7 9.7 16.1 0.00 0.00 0.00 66 1017.8
20260504000612 26 36 8.0 14.5 0.00 0.00 0.00 67 1017.6
20260504000110 26 5 12.9 17.7 0.00 0.00 0.00 65 1017.8
20260503235608 27 78 12.9 24.1 0.00 0.00 0.00 66 1017.7
20260503235104 27 27 8.0 16.1 0.00 0.00 0.00 67 1017.6
20260503234603 26 34 6.4 14.5 0.00 0.00 0.00 66 1017.8
20260503234100 26 28 3.2 16.1 0.00 0.00 0.00 67 1017.9
20260503233556 26 52 9.7 20.9 0.00 0.00 0.00 66 1017.6
20260503233052 27 24 14.5 17.7 0.00 0.00 0.00 65 1017.8
20260503232550 26 41 1.6 12.9 0.00 0.00 0.00 66 1017.7
20260503232047 26 40 4.8 16.1 0.00 0.00 0.00 65 1017.9
20260503231545 26 242 6.4 17.7 0.00 0.00 0.00 64 1017.8
20260503231041 27 54 9.7 30.6 0.00 0.00 0.00 64 1017.8
20260503230538 27 33 11.3 14.5 0.00 0.00 0.00 65 1017.8
20260503230036 27 24 3.2 17.7 0.00 0.00 0.00 67 1018.1
20260503225533 27 51 4.8 12.9 0.00 0.00 0.00 66 1017.9
20260503225032 27 34 4.8 16.1 0.00 0.00 0.00 66 1017.7
20260503224531 27 77 4.8 14.5 0.00 0.00 0.00 66 1018.0
20260503224028 27 12 11.3 16.1 0.00 0.00 0.00 69 1018.0
20260503223526 26 29 8.0 14.5 0.00 0.00 0.00 70 1018.0
20260503223021 26 40 6.4 14.5 0.00 0.00 0.00 69 1018.1
20260503222520 26 37 6.4 12.9 0.00 0.00 0.00 70 1018.2
20260503222017 26 80 6.4 17.7 0.00 0.00 0.00 70 1018.1
20260503221515 27 117 17.7 24.1 0.00 0.00 0.00 67 1018.2
20260503221013 27 340 6.4 12.9 0.00 0.00 0.00 69 1018.4
20260503220509 26 231 4.8 12.9 0.00 0.00 0.00 70 1018.6
20260503220006 26 320 6.4 17.7 0.00 0.00 0.00 73 1018.4
20260503215503 25 280 11.3 14.5 0.00 0.00 0.00 74 1018.6